Home   Weather   Destin   Past weeks
Flag for USA

Past Weather in Destin, Florida, USA — Yesterday and Last 2 Weeks

Now
87 °F

Scattered clouds.


Feels Like: 100 °F
Forecast: 89 / 80 °F
Wind: 6 mph from North

Location: Destin-Ft. Walton Beach Airport

Current Time: Jun 25, 2019 at 11:01:26 am

Latest Report: Jun 25, 2019 at 9:53 am


Visibility: 10 mi

Pressure: 30.06 "Hg

Humidity: 75%

Dew Point: 78 °F

Location of DestinLocation

Past Weather in Destin — Graph

°F

Destin Temperature Yesterday

Maximum temperature yesterday: 88 °F (at 10:53 am)
Minimum temperature yesterday: 81 °F (at 2:53 am)
Average temperature yesterday: 85 °F

High & Low Weather Summary for the Past Weeks

 TemperatureHumidityPressure
High90 °F (Jun 21, 1:53 pm)94% (Jun 19, 4:42 am)30.14 "Hg (Jun 19, 4:42 am)
Low72 °F (Jun 14, 5:53 am)34% (Jun 14, 11:53 am)29.85 "Hg (Jun 19, 5:53 pm)
Average83 °F73%29.98 "Hg
* Reported Jun 10 9:53 am — Jun 25 9:53 am, Destin. Weather by CustomWeather, © 2019

Note: Actual official high and low records may vary slightly from our data, if they occured in-between our weather recording intervals... More about our weather records

Advertising

Destin Weather History for the Previous 24 Hours

Scroll right to see more
 ConditionsComfort  
Time TempWeatherWind HumidityBarometerVisibility
9:53 am
Tue, Jun 25
87 °FScattered clouds.6 mph75%30.06 "Hg10 mi
8:53 am86 °FPartly sunny.7 mph80%30.06 "Hg10 mi
7:53 am85 °FOvercast.6 mph83%30.06 "Hg10 mi
6:53 am84 °FOvercast.5 mph85%30.05 "Hg9 mi
5:53 am83 °FPartly sunny.3 mph88%30.03 "Hg9 mi
5:33 am82 °FPartly sunny.5 mph88%30.03 "Hg10 mi
4:53 am83 °FPartly sunny.3 mph85%30.02 "Hg10 mi
3:53 am83 °FMostly cloudy.5 mph88%30.01 "Hg10 mi
2:53 am84 °FMostly cloudy.5 mph85%30.01 "Hg10 mi
1:53 am84 °FMostly cloudy.No wind85%29.99 "Hg10 mi
12:53 am82 °FPassing clouds.No wind88%29.99 "Hg10 mi
11:53 pm
Mon, Jun 24
84 °FClear.5 mph80%29.99 "Hg10 mi
10:53 pm81 °FClear.5 mph85%30.00 "Hg10 mi
9:53 pm84 °FClear.6 mph80%29.99 "Hg10 mi
8:53 pm84 °FClear.5 mph77%29.98 "Hg10 mi
7:53 pm85 °FClear.6 mph72%29.96 "Hg10 mi
6:53 pm86 °FClear.7 mph72%29.96 "Hg7 mi
5:53 pm86 °FSunny.6 mph67%29.96 "Hg5 mi
4:53 pm87 °FSunny.8 mph65%29.96 "Hg6 mi
3:53 pm87 °FSunny.10 mph61%29.98 "Hg6 mi
3:07 pm87 °FScattered clouds.6 mph53%29.98 "Hg10 mi
3:00 pm87 °FPartly sunny.5 mph53%29.98 "Hg10 mi
1:53 pm88 °FScattered clouds.8 mph75%30.00 "Hg5 mi
1:26 pm88 °FOvercast.9 mph75%30.00 "Hg5 mi
12:53 pm88 °FScattered clouds.9 mph73%30.01 "Hg10 mi
11:53 am87 °FLight rain. Scattered clouds.7 mph77%30.01 "Hg6 mi
Weather by CustomWeather, © 2019

See weather overview